Temp
14 14 14 14 13 13 13 13 13 13 13 13 14 14 14 14 14 14 14 14 14 14 14 14 14 14 14 14 14 14 14 13 13 13 13 13 13 13 14 14 13 13 13 13 13 13 13 13 12 12 12 12 12 11 11 11 11 11 11 10 10 10 10 10 10 10 10 10 10
13 13 13 13 13 13 13 13 13 13 13 13 14 14 14 14 14 14 14 14 14 14 14 14 14 14 14 14 14 14 13 13 13 13 13 13 13 13 13 13 13 13 13 13 13 13 13 13 13 12 12 12 12 12 12 11 11 11 11 10 10 10 10 10 10 10 10 10 10
13 13 13 13 13 13 13 13 13 13 13 13 14 14 14 14 14 14 14 14 14 14 14 14 14 14 14 14 14 13 13 13 13 13 12 13 13 13 13 13 13 13 13 13 13 13 13 13 13 12 12 12 12 11 11 11 11 11 10 10 10 10 10 10 10 10 10 10 10
13 13 13 13 13 13 13 13 13 13 13 13 14 14 14 14 14 14 14 14 14 14 14 14 14 14 14 14 14 13 13 13 12 12 12 12 13 13 13 13 13 13 13 13 13 13 13 13 12 12 12 12 12 11 11 11 10 10 10 10 10 10 10 10 10 10 10 10 10
12 13 13 13 13 13 13 13 13 13 13 13 13 13 13 13 14 14 14 14 14 14 14 14 14 14 14 14 14 13 13 13 12 12 12 12 12 13 13 13 13 13 13 13 13 12 12 12 12 12 12 12 11 11 10 10 10 11 11 10 10 10 10 10 10 10 10 10 10
12 12 12 12 12 13 13 13 13 13 13 13 13 13 13 13 13 13 13 14 14 14 14 14 14 14 14 14 14 13 13 13 12 12 12 12 12 12 12 12 12 12 12 12 12 12 12 12 12 12 12 12 11 11 11 11 11 11 11 10 10 10 10 10 10 10 10 10 10
12 12 12 12 12 12 12 12 12 12 12 12 12 12 12 12 12 13 13 13 13 13 14 14 14 14 14 14 13 13 13 12 12 12 12 12 12 12 12 12 12 12 12 12 12 12 12 12 12 12 12 12 11 11 11 11 11 11 10 10 10 10 10 10 10 10 10 9 9
11 11 12 12 12 12 12 12 12 12 12 12 12 12 12 12 12 12 12 13 13 13 13 13 13 13 13 13 13 13 13 12 12 12 12 12 12 12 12 12 12 12 12 12 12 12 12 12 12 12 11 11 11 11 11 10 10 10 10 10 10 10 10 10 10 10 10 10 10
11 11 11 11 11 11 11 11 12 12 12 12 11 11 11 11 12 12 12 12 12 12 12 12 13 13 13 13 13 13 12 12 12 12 11 11 11 12 12 12 12 12 12 12 12 12 12 12 11 11 11 11 11 11 10 10 10 10 10 10 10 10 10 10 10 10 10 10 9
11 11 11 11 11 11 11 11 11 11 11 11 11 11 11 11 11 11 11 11 12 12 12 12 12 12 12 12 12 12 12 12 12 11 11 11 11 11 11 11 11 11 11 11 12 12 11 11 11 11 11 11 11 10 10 10 10 10 10 10 10 10 9 9 9 9 9 9 9
11 11 11 11 11 11 11 11 11 11 11 11 11 11 11 11 11 11 11 11 11 11 11 11 11 12 12 12 12 12 12 12 11 11 11 11 11 11 11 11 11 11 11 11 11 11 11 11 11 11 11 10 10 10 10 10 10 10 10 10 9 9 9 9 9 9 9 9 9
10 10 10 10 10 10 10 10 10 10 11 11 11 11 11 11 11 11 11 11 11 11 11 11 11 11 11 12 12 12 11 11 11 11 11 11 11 11 11 11 11 11 11 11 11 11 11 11 11 11 11 11 10 10 10 10 10 10 10 9 9 9 9 9 9 9 9 9 9
10 10 10 10 10 10 10 10 10 10 10 10 10 10 10 10 10 10 10 10 10 10 10 10 11 11 11 11 11 11 11 11 11 11 11 11 11 11 11 11 11 11 11 11 11 11 11 11 11 11 10 10 10 10 10 10 10 10 9 9 9 9 8 9 9 9 9 9 9
9 9 9 9 9 10 10 10 10 10 10 10 10 10 10 10 10 10 10 10 10 10 10 10 10 10 11 11 11 11 10 10 11 11 11 11 11 11 11 11 11 11 11 11 11 11 11 10 10 10 10 10 10 10 10 10 10 10 9 9 9 9 8 8 9 9 9 9 9
9 9 9 9 9 9 9 9 9 9 9 9 9 9 9 9 9 9 9 9 9 9 9 10 10 10 10 10 10 10 10 10 10 10 10 10 10 10 10 10 10 11 11 11 11 10 10 10 10 10 10 10 10 9 9 9 9 9 9 9 9 8 8 8 8 9 9 8 8
8 8 8 9 9 9 9 9 9 9 9 9 9 9 9 9 9 9 9 9 9 9 9 9 9 9 9 9 9 9 9 9 9 9 9 9 9 9 9 9 10 10 10 10 10 10 10 9 9 9 9 9 9 9 9 9 9 9 9 8 8 8 8 8 8 8 8 8 8
8 8 8 8 8 8 8 8 8 8 8 8 8 8 8 8 8 8 8 8 9 9 9 9 9 9 9 9 9 9 8 8 8 8 8 8 8 9 9 9 9 9 10 10 9 9 9 9 9 9 9 9 9 9 9 9 9 9 8 8 8 8 8 8 8 8 8 8 8
7 7 7 7 7 7 7 7 7 8 8 8 8 8 8 8 8 8 8 8 8 8 8 8 8 8 8 8 8 8 7 8 8 8 8 8 8 8 8 8 9 9 9 9 9 9 9 9 9 9 9 9 9 9 9 9 8 8 8 8 8 8 8 8 8 8 7 7 7
7 7 6 6 6 6 6 6 7 7 7 7 7 7 7 7 7 7 7 7 7 7 7 7 7 7 7 7 7 7 7 7 7 7 7 7 7 8 8 8 8 9 9 9 9 9 9 9 9 9 9 8 8 8 8 8 8 8 8 8 8 8 8 8 7 7 7 7 7
6 6 5 5 5 5 6 6 6 6 6 6 6 6 6 7 7 7 7 7 7 7 7 7 7 7 7 8 8 8 8 7 7 7 7 7 8 8 8 8 9 9 9 9 9 9 9 9 8 8 8 8 8 8 8 8 8 8 8 8 8 8 7 7 7 7 7 6 6
5 5 5 5 5 5 5 5 5 5 5 5 6 6 7 7 7 7 7 7 8 8 7 7 7 8 8 8 8 8 8 8 8 8 8 8 8 8 8 8 8 8 8 8 8 8 8 8 8 8 8 8 8 8 8 8 8 8 8 8 7 7 7 7 6 6 6 6 6
5 4 4 5 5 5 5 5 5 5 5 5 5 6 6 7 7 7 7 7 7 7 7 7 7 7 7 7 7 7 7 7 7 8 8 8 8 8 8 8 7 7 7 8 8 8 8 8 8 7 7 7 7 7 7 7 7 7 7 7 7 7 6 6 6 6 6 6 5
4 4 5 5 5 5 5 5 5 5 5 5 5 5 6 6 7 7 7 7 7 7 7 7 7 7 7 7 7 7 7 7 7 7 7 7 7 7 7 7 7 7 7 8 8 8 8 8 7 7 7 7 7 7 7 7 7 7 7 6 6 6 6 6 5 5 5 5 5
4 4 4 4 4 4 4 4 4 4 5 5 5 5 5 6 6 7 7 7 7 7 7 7 7 7 7 6 6 6 6 6 6 6 6 7 7 7 7 7 7 7 7 7 7 7 7 7 7 7 7 7 7 7 7 7 7 6 6 6 6 6 5 5 5 5 5 5 5
4 4 4 4 4 4 4 4 4 4 4 4 5 5 5 5 6 6 6 6 7 7 7 7 7 7 7 6 6 6 6 6 6 6 6 6 7 7 7 7 7 7 7 7 7 7 7 7 7 7 7 7 7 7 6 6 6 6 6 5 5 5 5 5 5 5 5 5 5
4 4 4 4 4 4 4 4 4 4 4 4 4 4 4 5 5 5 6 6 6 6 6 6 6 6 6 6 6 6 6 6 6 6 6 7 7 7 7 7 7 7 7 7 7 7 7 7 7 7 7 7 6 6 6 6 6 5 5 5 5 5 5 5 5 5 5 5 4
4 4 4 4 4 4 4 4 4 4 4 4 4 4 4 4 5 5 5 5 5 5 5 5 5 5 6 6 6 6 6 6 6 6 6 7 7 7 7 7 7 7 7 7 7 7 7 7 7 6 6 6 6 6 6 6 5 5 5 5 5 5 5 5 5 4 4 4 4
4 4 4 4 4 4 4 4 4 4 4 4 4 4 4 5 5 5 5 5 5 5 5 5 5 5 5 6 6 6 6 6 6 6 7 7 7 7 7 7 7 7 7 7 7 7 7 7 6 6 6 6 6 6 5 5 5 5 5 5 5 5 5 4 4 4 4 3 3
3 3 3 4 4 4 4 4 4 4 4 4 4 4 5 5 5 5 5 5 5 5 5 5 5 5 6 6 6 6 6 6 6 6 6 7 7 7 7 7 7 7 7 7 7 7 6 6 6 6 6 6 6 5 5 5 5 5 5 5 5 4 4 4 3 3 3 3 3
3 3 3 4 4 4 4 4 4 4 5 5 5 5 5 5 5 5 5 5 5 5 5 5 5 6 6 6 6 6 6 6 6 6 6 6 7 7 6 6 7 7 7 7 6 6 6 6 6 6 6 6 5 5 5 5 5 5 4 4 4 4 3 3 3 3 2 2 2
3 3 4 4 4 4 4 4 4 4 5 5 5 5 5 5 5 5 5 5 5 5 5 5 5 6 6 5 6 6 6 6 6 6 6 6 6 6 6 6 6 6 6 6 6 6 6 6 6 6 5 5 5 5 5 4 4 4 4 4 3 3 3 2 2 2 2 2 2
3 3 4 4 4 4 4 4 4 4 4 4 4 4 5 5 5 5 5 5 5 5 5 5 5 6 5 5 5 5 6 6 6 6 6 6 6 6 6 6 6 6 6 6 5 5 5 5 5 5 5 5 5 4 4 4 4 3 3 3 2 2 2 2 2 2 2 2 2
3 4 4 4 4 4 4 4 4 4 4 4 4 4 4 4 4 4 5 5 5 5 5 5 6 6 6 5 5 5 5 5 6 6 6 6 6 6 5 5 5 5 5 5 5 5 5 5 5 5 5 4 4 4 4 3 3 3 2 2 2 2 2 2 2 2 2 2 2
4 4 4 4 4 4 4 4 4 4 4 4 4 4 4 4 4 4 4 5 5 5 5 5 5 5 5 5 5 5 5 5 5 5 5 5 5 5 5 5 5 5 5 5 5 5 5 4 4 4 4 4 3 3 3 3 2 2 2 2 2 2 2 2 2 2 2 1 1
4 4 4 4 4 4 4 4 4 4 4 4 4 4 5 5 5 5 5 5 5 5 5 5 5 5 5 5 5 5 5 5 5 5 5 5 5 5 5 5 4 4 4 4 4 4 4 4 4 3 3 3 3 2 2 2 2 2 2 2 2 2 2 2 2 2 1 1 1
4 3 3 3 3 4 4 4 4 4 4 4 4 4 5 5 5 5 5 5 5 5 5 5 5 5 5 5 5 5 5 5 5 5 4 4 4 4 4 4 4 4 4 3 3 3 3 3 3 3 2 2 2 2 2 2 1 1 1 1 2 2 2 2 2 2 2 1 1
4 3 3 3 4 4 4 4 4 4 4 4 4 4 4 5 5 4 4 4 5 5 5 5 5 5 5 5 5 5 4 4 4 4 4 4 4 4 4 3 3 3 3 3 3 3 2 2 2 2 2 2 2 1 1 1 1 1 1 1 2 2 2 2 2 2 1 1 1
4 4 4 4 4 4 4 4 4 4 4 4 4 4 4 4 4 4 4 4 5 5 5 4 5 5 4 4 4 4 4 4 4 4 3 3 3 3 3 3 2 2 2 2 2 2 2 1 1 1 1 1 1 1 1 1 1 1 2 2 2 2 2 2 2 1 1 1 1
3 3 4 4 4 4 4 4 3 3 3 4 4 4 4 4 4 4 4 4 4 4 4 4 4 4 4 4 4 4 4 4 3 3 3 3 3 2 2 2 2 2 2 2 1 1 1 1 1 1 1 1 1 1 1 2 2 2 2 2 2 1 1 1 1 1 1 1 0
3 3 3 3 4 4 3 3 3 3 3 3 4 4 4 3 3 3 3 3 4 4 4 4 4 3 3 3 3 3 3 3 3 2 2 2 2 2 2 1 1 1 1 1 1 1 1 1 1 1 1 2 2 2 2 2 2 2 1 1 1 1 1 1 1 1 0 0 -0
3 3 3 3 3 3 3 3 3 3 3 3 3 3 3 3 3 3 3 3 3 3 3 3 3 3 3 2 2 2 2 2 2 2 2 2 1 1 1 1 1 1 1 1 1 1 1 1 1 1 1 2 2 2 2 1 1 1 1 1 1 1 0 0 0 -0 -0 -0 -1
Height
1506 1506 1506 1506 1506 1506 1506 1506 1506 1506 1506 1507 1507 1507 1507 1507 1507 1507 1508 1508 1508 1508 1508 1508 1509 1509 1509 1509 1509 1509 1510 1510 1510 1510 1511 1511 1512 1512 1512 1513 1513 1513 1514 1514 1515 1515 1515 1516 1516 1516 1517 1517 1517 1517 1517 1517 1518 1518 1518 1518 1518 1518 1518 1519 1519 1520 1520 1520 1520
1505 1505 1505 1505 1505 1505 1505 1505 1505 1505 1505 1505 1505 1505 1505 1505 1505 1505 1506 1506 1506 1506 1506 1506 1507 1507 1507 1507 1507 1507 1508 1508 1508 1508 1509 1509 1510 1510 1511 1511 1511 1512 1512 1513 1513 1513 1514 1514 1514 1514 1515 1515 1515 1515 1516 1516 1516 1516 1516 1517 1517 1517 1518 1518 1518 1518 1519 1519 1519
1503 1503 1503 1503 1503 1503 1504 1504 1504 1504 1503 1503 1503 1504 1504 1504 1504 1504 1504 1504 1504 1504 1504 1504 1505 1505 1505 1505 1505 1505 1506 1506 1506 1507 1507 1508 1508 1508 1509 1509 1510 1510 1510 1511 1511 1512 1512 1512 1513 1513 1513 1513 1513 1513 1514 1514 1514 1515 1515 1516 1516 1517 1517 1517 1517 1518 1518 1518 1518
1502 1502 1502 1502 1502 1502 1502 1502 1502 1502 1502 1502 1502 1502 1502 1502 1502 1502 1503 1503 1503 1503 1503 1503 1503 1503 1503 1503 1503 1504 1504 1504 1505 1505 1505 1506 1506 1507 1507 1508 1508 1508 1509 1509 1510 1510 1511 1511 1511 1512 1512 1512 1512 1513 1513 1513 1513 1513 1514 1515 1515 1516 1516 1516 1516 1516 1517 1517 1517
1500 1500 1500 1500 1501 1501 1501 1501 1501 1501 1501 1501 1501 1501 1501 1501 1501 1501 1501 1501 1501 1501 1501 1501 1501 1502 1502 1502 1502 1502 1503 1503 1503 1503 1504 1504 1505 1505 1505 1506 1506 1507 1507 1508 1508 1509 1509 1509 1510 1510 1511 1511 1510 1510 1511 1512 1512 1513 1513 1514 1514 1514 1514 1515 1515 1515 1515 1515 1516
1499 1499 1499 1499 1499 1499 1499 1499 1499 1499 1499 1499 1499 1499 1499 1499 1499 1499 1499 1499 1499 1500 1500 1500 1500 1500 1500 1500 1500 1500 1501 1501 1502 1502 1502 1503 1503 1504 1504 1504 1505 1505 1506 1506 1507 1507 1508 1508 1508 1509 1509 1509 1509 1509 1510 1511 1511 1511 1512 1512 1512 1512 1513 1513 1513 1513 1513 1514 1514
1498 1498 1498 1498 1498 1498 1498 1498 1498 1498 1498 1498 1498 1498 1498 1498 1498 1498 1498 1498 1498 1498 1498 1498 1498 1498 1498 1498 1498 1499 1499 1499 1500 1500 1501 1501 1502 1502 1503 1503 1503 1504 1504 1505 1505 1506 1506 1507 1507 1508 1508 1508 1508 1508 1508 1509 1509 1510 1510 1510 1510 1511 1511 1511 1511 1512 1512 1512 1513
1496 1496 1496 1496 1496 1496 1496 1496 1496 1496 1496 1496 1496 1496 1496 1496 1496 1496 1496 1496 1496 1496 1496 1496 1496 1496 1496 1496 1497 1497 1497 1498 1498 1499 1500 1500 1500 1501 1501 1502 1502 1503 1503 1503 1504 1504 1505 1505 1506 1506 1506 1506 1506 1507 1507 1507 1508 1508 1508 1509 1509 1509 1509 1509 1510 1510 1511 1511 1511
1494 1494 1494 1494 1494 1494 1494 1494 1494 1494 1495 1495 1495 1494 1494 1494 1494 1494 1494 1494 1495 1495 1495 1495 1495 1494 1494 1495 1495 1495 1496 1496 1497 1498 1498 1499 1499 1500 1500 1501 1501 1501 1502 1502 1503 1503 1503 1504 1504 1504 1504 1505 1505 1505 1505 1506 1506 1507 1507 1508 1508 1508 1508 1508 1508 1509 1509 1509 1509
1493 1493 1493 1493 1493 1493 1493 1493 1493 1493 1493 1493 1493 1493 1493 1493 1493 1493 1493 1493 1493 1493 1493 1493 1493 1493 1493 1493 1493 1494 1494 1495 1495 1496 1497 1498 1498 1498 1499 1499 1500 1500 1500 1501 1501 1502 1502 1502 1503 1503 1503 1503 1503 1503 1504 1504 1505 1506 1506 1506 1506 1507 1507 1507 1507 1507 1508 1507 1507
1491 1491 1491 1491 1491 1491 1492 1492 1492 1492 1492 1492 1492 1492 1492 1492 1492 1492 1492 1492 1492 1492 1492 1492 1492 1492 1492 1492 1492 1492 1493 1493 1494 1495 1496 1496 1497 1497 1498 1498 1498 1498 1499 1499 1500 1500 1500 1501 1501 1501 1501 1502 1502 1502 1503 1503 1504 1504 1505 1505 1505 1505 1505 1505 1506 1506 1505 1505 1505
1490 1490 1490 1490 1490 1490 1490 1490 1490 1490 1490 1490 1490 1490 1490 1490 1491 1491 1491 1491 1490 1490 1491 1491 1491 1491 1491 1491 1491 1491 1492 1492 1493 1493 1494 1495 1495 1496 1496 1496 1497 1497 1498 1498 1498 1498 1499 1499 1499 1500 1500 1500 1501 1501 1501 1502 1503 1503 1503 1503 1503 1504 1504 1504 1504 1504 1503 1503 1503
1488 1488 1488 1489 1489 1489 1489 1489 1489 1489 1489 1489 1489 1489 1489 1489 1489 1489 1489 1489 1489 1489 1489 1489 1489 1489 1490 1490 1490 1490 1490 1491 1491 1492 1493 1493 1493 1494 1494 1495 1495 1496 1496 1497 1497 1498 1498 1498 1498 1499 1499 1499 1499 1500 1500 1501 1502 1502 1502 1502 1502 1502 1502 1502 1502 1502 1502 1502 1501
1487 1488 1488 1488 1488 1488 1488 1488 1488 1488 1488 1488 1488 1488 1488 1488 1488 1488 1488 1488 1488 1488 1488 1488 1488 1488 1488 1488 1489 1489 1489 1490 1490 1491 1491 1492 1492 1493 1493 1493 1494 1494 1495 1496 1496 1496 1497 1497 1497 1498 1498 1498 1499 1499 1499 1500 1500 1501 1501 1501 1501 1500 1500 1500 1500 1500 1500 1500 1500
1486 1486 1487 1487 1487 1487 1487 1487 1487 1487 1487 1487 1487 1487 1487 1487 1487 1487 1487 1487 1487 1487 1487 1488 1488 1488 1488 1488 1488 1488 1488 1489 1489 1489 1490 1490 1491 1492 1492 1493 1493 1493 1494 1495 1495 1495 1496 1496 1497 1497 1498 1498 1498 1498 1498 1499 1499 1499 1499 1499 1499 1499 1499 1499 1499 1499 1498 1498 1498
1485 1486 1486 1486 1486 1486 1486 1486 1486 1486 1486 1486 1486 1486 1486 1486 1486 1486 1486 1486 1486 1486 1487 1487 1487 1487 1487 1487 1487 1488 1488 1488 1488 1489 1489 1490 1490 1491 1491 1492 1493 1493 1493 1494 1494 1494 1495 1495 1496 1496 1497 1497 1497 1497 1497 1498 1498 1498 1498 1498 1498 1498 1498 1498 1498 1497 1498 1498 1498
1484 1485 1485 1485 1485 1485 1485 1485 1485 1485 1485 1485 1485 1485 1485 1485 1485 1485 1485 1485 1486 1486 1486 1486 1486 1486 1486 1487 1487 1487 1488 1488 1488 1489 1489 1489 1490 1490 1491 1492 1492 1493 1493 1493 1493 1494 1494 1495 1495 1496 1496 1496 1496 1496 1496 1496 1496 1496 1496 1497 1497 1497 1496 1496 1496 1496 1496 1497 1497
1483 1484 1484 1484 1484 1484 1484 1484 1484 1484 1484 1484 1484 1484 1484 1484 1484 1485 1485 1485 1485 1485 1485 1485 1486 1486 1486 1486 1487 1487 1487 1488 1488 1488 1489 1489 1490 1490 1490 1491 1492 1492 1493 1493 1493 1493 1494 1494 1494 1494 1494 1494 1494 1494 1494 1495 1495 1495 1495 1495 1495 1495 1495 1495 1495 1496 1496 1496 1496
1483 1483 1483 1484 1484 1484 1483 1483 1483 1483 1483 1483 1484 1484 1484 1484 1484 1484 1484 1484 1485 1485 1485 1485 1486 1486 1486 1486 1486 1487 1487 1487 1488 1488 1488 1488 1489 1489 1490 1490 1491 1491 1492 1492 1493 1493 1493 1493 1493 1493 1493 1493 1493 1493 1493 1493 1494 1494 1494 1494 1494 1494 1494 1494 1494 1495 1495 1495 1494
1483 1483 1483 1483 1483 1483 1483 1483 1483 1483 1483 1483 1484 1484 1484 1484 1484 1484 1485 1485 1485 1485 1486 1486 1486 1486 1486 1486 1487 1487 1487 1487 1487 1487 1488 1488 1488 1489 1489 1489 1490 1490 1491 1491 1491 1492 1492 1492 1492 1492 1492 1492 1492 1493 1493 1493 1493 1493 1493 1493 1493 1493 1493 1493 1493 1493 1493 1493 1493
1482 1483 1483 1483 1483 1483 1483 1483 1483 1483 1483 1483 1484 1484 1484 1484 1485 1485 1485 1485 1485 1485 1485 1485 1485 1486 1486 1486 1486 1487 1487 1487 1487 1487 1488 1488 1488 1488 1489 1489 1489 1489 1489 1489 1490 1490 1490 1490 1491 1491 1491 1491 1491 1492 1492 1492 1492 1492 1492 1492 1492 1492 1492 1493 1493 1493 1493 1492 1492
1482 1482 1482 1482 1482 1482 1482 1482 1482 1483 1483 1483 1483 1483 1483 1484 1484 1484 1484 1484 1484 1484 1484 1484 1484 1485 1485 1485 1486 1486 1486 1486 1486 1487 1487 1487 1488 1488 1488 1488 1488 1488 1488 1488 1488 1489 1489 1489 1490 1490 1490 1490 1491 1491 1491 1491 1491 1491 1491 1491 1491 1492 1492 1492 1492 1492 1491 1491 1491
1481 1481 1481 1481 1481 1481 1481 1481 1482 1482 1482 1482 1482 1482 1483 1483 1483 1483 1483 1483 1483 1483 1484 1484 1484 1484 1484 1484 1485 1485 1485 1485 1485 1486 1486 1486 1486 1487 1487 1487 1487 1487 1487 1487 1488 1488 1488 1488 1489 1489 1489 1490 1490 1490 1490 1490 1490 1491 1491 1491 1491 1491 1491 1491 1491 1490 1490 1490 1490
1480 1480 1480 1480 1480 1480 1480 1481 1481 1481 1481 1481 1482 1482 1482 1482 1482 1482 1483 1483 1483 1483 1483 1483 1483 1483 1483 1483 1484 1484 1484 1484 1485 1485 1485 1485 1485 1486 1486 1486 1486 1486 1487 1487 1487 1488 1488 1488 1488 1488 1489 1489 1489 1489 1490 1490 1490 1490 1490 1490 1490 1490 1490 1490 1490 1489 1489 1489 1489
1480 1480 1480 1480 1480 1480 1480 1480 1480 1480 1480 1480 1481 1481 1481 1481 1481 1481 1482 1482 1482 1482 1482 1482 1482 1482 1482 1483 1483 1483 1483 1483 1484 1484 1484 1484 1484 1485 1485 1485 1486 1486 1486 1486 1487 1487 1487 1488 1488 1488 1488 1488 1489 1489 1489 1489 1489 1489 1489 1489 1489 1489 1489 1489 1489 1488 1488 1488 1488
1479 1479 1480 1480 1480 1480 1480 1480 1480 1480 1480 1480 1480 1480 1480 1480 1480 1480 1480 1480 1481 1481 1481 1481 1481 1481 1482 1482 1482 1482 1483 1483 1483 1483 1484 1484 1484 1484 1484 1485 1485 1485 1485 1486 1486 1486 1487 1487 1487 1488 1488 1488 1488 1488 1489 1489 1489 1489 1489 1489 1488 1488 1488 1488 1488 1488 1488 1487 1487
1479 1479 1479 1480 1480 1480 1480 1480 1480 1480 1480 1480 1480 1480 1480 1480 1480 1479 1480 1480 1480 1480 1480 1480 1481 1481 1481 1482 1482 1482 1482 1483 1483 1483 1483 1483 1483 1484 1484 1484 1484 1485 1485 1485 1486 1486 1486 1486 1487 1487 1487 1487 1488 1488 1488 1488 1488 1488 1488 1488 1488 1488 1488 1487 1487 1487 1487 1487 1487
1479 1479 1479 1480 1480 1480 1480 1480 1480 1480 1480 1480 1480 1479 1479 1479 1479 1479 1479 1479 1479 1480 1480 1480 1480 1481 1481 1481 1482 1482 1482 1482 1482 1483 1483 1483 1483 1483 1483 1483 1484 1484 1484 1485 1485 1485 1485 1486 1486 1486 1487 1487 1487 1487 1488 1488 1488 1488 1487 1487 1487 1487 1487 1486 1486 1486 1486 1486 1486
1479 1479 1479 1480 1480 1480 1480 1480 1480 1480 1480 1479 1479 1479 1479 1479 1479 1479 1479 1479 1479 1479 1480 1480 1480 1481 1481 1481 1481 1481 1482 1482 1482 1482 1482 1482 1483 1483 1483 1483 1483 1483 1484 1484 1484 1484 1485 1485 1485 1486 1486 1486 1487 1487 1487 1487 1487 1487 1487 1487 1486 1486 1486 1486 1486 1486 1486 1486 1486
1479 1479 1479 1479 1480 1480 1480 1480 1479 1479 1479 1479 1478 1478 1478 1478 1478 1479 1479 1479 1479 1479 1480 1480 1480 1480 1481 1481 1481 1481 1481 1481 1481 1482 1482 1482 1482 1482 1482 1483 1483 1483 1483 1483 1483 1484 1484 1484 1485 1485 1485 1486 1486 1486 1486 1486 1486 1486 1486 1486 1486 1486 1486 1486 1486 1486 1486 1486 1486
1479 1479 1479 1479 1479 1479 1479 1479 1479 1479 1478 1478 1478 1478 1478 1478 1478 1478 1479 1479 1479 1479 1479 1480 1480 1480 1480 1480 1480 1481 1481 1481 1481 1481 1481 1481 1482 1482 1482 1482 1482 1483 1483 1483 1483 1483 1483 1484 1484 1485 1485 1485 1486 1486 1486 1486 1486 1486 1486 1486 1486 1486 1486 1486 1486 1486 1486 1486 1486
1478 1479 1479 1479 1479 1479 1479 1479 1479 1478 1478 1478 1478 1478 1478 1478 1478 1478 1479 1479 1479 1479 1479 1479 1480 1480 1480 1480 1480 1480 1480 1481 1481 1481 1481 1481 1481 1482 1482 1482 1482 1482 1482 1483 1483 1483 1483 1483 1484 1484 1485 1485 1485 1485 1486 1486 1486 1486 1486 1485 1485 1485 1486 1486 1486 1486 1486 1486 1486
1478 1478 1478 1478 1478 1478 1478 1478 1478 1478 1478 1478 1478 1478 1478 1478 1478 1478 1479 1479 1479 1479 1479 1479 1479 1480 1480 1480 1480 1480 1480 1480 1480 1481 1481 1481 1481 1481 1482 1482 1482 1482 1482 1482 1483 1483 1483 1483 1483 1484 1484 1485 1485 1485 1485 1485 1485 1485 1485 1485 1485 1485 1486 1486 1486 1486 1486 1485 1485
1478 1478 1478 1478 1478 1478 1478 1478 1478 1478 1478 1478 1478 1478 1478 1478 1478 1478 1478 1478 1479 1479 1479 1479 1479 1480 1480 1480 1480 1480 1480 1480 1480 1480 1481 1481 1481 1481 1482 1482 1482 1482 1482 1482 1483 1483 1483 1483 1483 1484 1484 1485 1485 1485 1485 1485 1485 1485 1485 1485 1485 1486 1486 1486 1486 1485 1485 1485 1485
1478 1478 1478 1478 1478 1478 1478 1478 1478 1478 1478 1478 1478 1478 1478 1478 1478 1478 1478 1478 1478 1479 1479 1479 1479 1479 1479 1479 1480 1480 1480 1480 1480 1480 1480 1481 1481 1481 1481 1482 1482 1482 1482 1483 1483 1483 1483 1483 1483 1484 1484 1484 1485 1485 1485 1485 1485 1485 1485 1485 1485 1485 1485 1485 1485 1485 1485 1484 1484
1477 1477 1478 1478 1478 1478 1478 1478 1478 1478 1478 1478 1478 1478 1478 1478 1478 1478 1478 1478 1478 1478 1478 1479 1479 1479 1479 1479 1479 1479 1479 1479 1480 1480 1480 1481 1481 1481 1481 1482 1482 1482 1482 1483 1483 1483 1483 1483 1483 1484 1484 1484 1485 1485 1485 1485 1485 1485 1485 1485 1485 1485 1485 1485 1485 1484 1484 1484 1484
1477 1477 1477 1477 1477 1478 1478 1478 1478 1478 1478 1478 1478 1478 1478 1478 1478 1478 1478 1478 1478 1478 1478 1478 1478 1478 1478 1478 1479 1479 1479 1479 1480 1480 1480 1480 1481 1481 1481 1482 1482 1482 1483 1483 1483 1483 1483 1483 1484 1484 1484 1485 1485 1485 1485 1485 1485 1485 1485 1485 1485 1485 1485 1484 1484 1484 1484 1483 1483
1477 1477 1477 1477 1477 1477 1477 1477 1477 1477 1477 1477 1477 1477 1478 1477 1477 1477 1478 1478 1478 1478 1478 1478 1478 1478 1478 1478 1478 1479 1479 1479 1479 1480 1480 1480 1481 1481 1481 1482 1482 1483 1483 1483 1483 1483 1483 1484 1484 1484 1485 1485 1485 1485 1485 1485 1485 1485 1485 1485 1485 1484 1484 1484 1484 1483 1483 1483 1483
1476 1476 1476 1477 1477 1477 1477 1477 1477 1477 1477 1477 1477 1477 1477 1477 1477 1477 1478 1478 1478 1478 1478 1478 1478 1478 1478 1478 1478 1479 1479 1479 1479 1480 1480 1480 1481 1481 1482 1482 1482 1483 1483 1483 1483 1483 1483 1484 1484 1484 1485 1485 1485 1484 1484 1484 1484 1484 1484 1484 1484 1484 1484 1483 1483 1483 1483 1483 1483
1476 1476 1476 1476 1476 1476 1476 1476 1477 1477 1477 1477 1477 1477 1477 1477 1477 1477 1478 1478 1478 1478 1478 1478 1478 1478 1478 1478 1478 1479 1479 1479 1479 1480 1480 1481 1481 1481 1482 1482 1482 1483 1483 1483 1483 1483 1484 1484 1484 1484 1484 1484 1484 1484 1484 1484 1484 1484 1484 1484 1483 1483 1483 1483 1483 1483 1483 1482 1482
1475 1475 1475 1475 1476 1476 1476 1476 1476 1477 1477 1477 1477 1477 1477 1477 1477 1477 1477 1477 1477 1477 1478 1478 1478 1478 1478 1478 1478 1479 1479 1479 1480 1480 1480 1481 1481 1481 1482 1482 1483 1483 1483 1483 1483 1484 1484 1484 1484 1484 1484 1484 1484 1484 1484 1483 1483 1483 1483 1483 1483 1483 1483 1483 1482 1482 1482 1482 1481
Wind_Speed
21 22 22 22 23 24 24 25 26 27 27 28 29 29 30 31 31 32 32 33 33 33 33 33 33 33 32 32 31 31 31 30 30 30 31 31 30 29 28 27 26 24 23 23 23 24 25 26 27 27 25 22 21 20 20 20 19 18 15 14 14 13 13 14 15 15 15 15 16
21 22 22 21 21 22 22 22 22 23 23 24 24 24 25 25 25 26 26 26 27 27 28 28 28 28 28 28 27 27 27 26 26 26 27 27 27 27 27 26 25 24 23 22 23 23 24 25 26 26 25 24 23 22 21 19 18 16 15 14 13 13 13 14 13 13 13 14 16
22 22 22 22 22 22 22 22 22 22 22 22 23 23 23 23 23 23 23 24 24 24 25 25 25 26 26 26 25 25 24 24 23 23 23 24 24 25 25 25 24 22 22 21 21 22 23 24 25 25 25 24 24 21 18 15 14 14 14 14 14 14 15 14 13 12 13 15 17
23 23 23 22 22 22 22 22 22 22 23 23 23 23 23 23 23 23 23 23 23 24 24 24 24 24 24 24 24 24 23 23 22 22 22 22 23 23 23 23 22 21 20 20 20 21 22 23 23 23 23 24 23 21 18 15 13 12 13 15 16 17 17 15 13 13 14 15 17
22 22 22 22 22 22 22 22 22 23 23 24 24 24 24 24 24 24 24 24 24 24 24 24 24 24 24 24 23 23 23 22 22 21 21 22 22 22 22 21 20 20 19 19 19 20 20 21 21 21 22 23 21 18 15 13 11 11 13 16 18 18 17 15 14 14 14 15 16
21 22 22 22 22 22 22 22 22 23 23 23 23 23 24 24 24 24 24 24 24 24 24 24 23 23 23 23 23 23 23 22 22 21 21 21 21 20 20 20 19 19 19 18 19 19 19 18 18 19 21 21 18 15 13 12 11 12 15 18 19 18 16 14 14 14 15 16 17
21 21 21 22 22 22 22 22 22 22 22 22 22 22 23 23 23 23 24 24 24 24 24 24 23 23 22 22 22 23 23 22 22 22 21 20 20 19 19 19 18 18 18 18 18 18 17 17 17 18 19 18 16 14 13 13 12 13 16 19 19 18 16 14 14 14 16 17 19
21 21 21 21 22 22 22 22 22 22 22 22 21 21 22 22 22 23 23 24 24 24 23 23 23 22 22 22 22 22 23 23 22 22 21 20 19 19 18 18 18 17 17 17 17 17 17 17 17 17 18 17 16 16 15 14 13 14 16 18 18 17 15 14 14 15 16 18 21
21 21 21 21 21 22 22 22 22 21 21 21 21 21 21 22 22 23 23 23 23 23 22 22 22 22 22 22 22 22 23 23 23 22 21 20 19 18 18 17 17 17 17 17 17 17 17 17 17 17 18 18 17 17 16 14 12 14 16 18 18 17 16 15 15 16 18 20 22
21 21 21 21 21 21 21 21 21 21 20 20 20 20 21 21 22 22 22 22 22 22 22 21 21 21 20 20 21 21 22 23 23 22 21 20 19 18 17 17 17 17 17 17 17 17 17 17 17 18 18 18 17 16 15 13 13 15 17 19 18 17 16 16 16 17 20 22 22
20 20 21 21 21 21 20 20 20 20 19 19 20 20 20 20 20 21 21 21 21 21 21 20 20 19 19 19 19 19 20 21 21 21 21 20 19 18 17 17 17 17 17 17 17 17 17 17 17 17 17 17 17 15 13 13 14 16 19 19 18 17 16 16 17 19 21 22 21
19 20 20 20 19 19 19 19 19 19 19 19 19 19 19 19 19 19 19 19 19 19 19 18 18 17 17 16 16 16 17 18 19 19 19 19 18 18 17 17 17 17 17 17 17 17 16 16 17 18 18 17 16 14 13 13 16 18 19 18 17 16 16 17 18 20 20 19 18
18 18 18 18 17 17 17 17 17 18 18 18 18 18 17 17 17 17 17 17 17 17 16 16 16 15 14 14 13 13 14 15 16 17 17 18 18 18 18 17 17 17 17 17 17 17 16 17 17 18 17 16 15 14 14 15 17 19 19 18 17 17 17 17 17 17 16 15 14
16 16 16 15 15 15 15 15 16 16 17 17 16 16 16 16 15 15 15 15 14 14 14 13 13 12 11 11 11 11 12 13 14 15 16 16 17 17 17 17 17 17 17 17 17 17 17 17 17 17 16 15 15 15 15 17 19 20 20 20 18 17 17 16 15 13 13 12 13
14 14 14 13 13 13 14 14 15 15 15 15 15 15 14 14 14 13 13 13 13 12 12 12 11 10 9 9 9 9 10 11 12 13 13 14 15 15 15 15 16 16 16 17 17 17 17 16 16 16 16 17 16 16 17 18 20 21 21 20 18 17 15 13 12 11 11 12 13
13 12 12 12 12 12 13 13 13 13 13 13 13 13 13 13 13 12 12 12 12 12 11 10 9 8 8 7 7 7 8 8 9 9 10 11 11 12 12 13 14 14 15 16 16 16 15 15 15 16 17 18 17 17 18 19 20 19 18 16 14 13 11 11 10 10 11 12 13
12 11 11 11 11 11 11 11 12 12 13 13 13 12 12 12 11 10 10 10 10 10 9 8 7 6 6 6 6 6 6 6 6 7 7 8 9 9 10 11 12 13 14 14 14 14 14 15 16 16 17 17 17 18 19 19 18 16 13 11 10 10 10 10 10 11 12 13 13
11 11 11 10 10 9 9 10 11 11 12 12 11 10 9 9 9 8 8 7 7 7 6 5 5 4 4 5 5 5 5 5 6 7 8 8 9 9 10 10 11 12 13 13 13 14 15 16 16 16 16 16 17 17 17 16 13 11 9 8 8 9 9 10 11 12 12 13 13
11 10 9 9 9 9 9 9 10 9 9 8 8 7 7 7 6 6 6 5 5 4 4 5 4 4 4 5 5 6 6 7 8 9 9 10 10 11 11 12 13 13 14 14 14 15 16 16 16 16 16 15 14 13 11 9 8 7 7 8 8 9 10 10 11 12 12 12 13
10 9 8 8 9 9 9 8 6 5 4 4 4 4 4 4 4 4 4 4 4 4 4 4 4 5 6 7 8 8 9 10 10 11 11 12 12 13 13 14 14 14 13 13 14 15 15 15 14 13 12 10 8 7 6 5 6 6 7 8 9 9 10 10 11 11 11 11 12
9 7 7 8 9 9 9 7 4 3 4 4 4 4 4 4 5 5 6 6 7 7 7 7 7 7 8 9 9 9 10 10 10 11 11 11 12 12 12 12 11 11 11 12 12 13 12 11 9 7 6 5 4 4 4 5 6 7 8 8 9 9 10 10 10 11 11 11 12
9 8 9 10 11 12 10 8 6 6 8 8 9 8 8 7 7 7 8 8 9 9 9 9 9 9 9 9 10 10 10 10 10 10 10 10 10 10 10 9 10 10 10 10 9 8 7 5 4 3 3 3 4 4 5 5 6 7 8 9 9 9 10 10 10 10 11 11 11
10 10 10 11 11 10 9 8 9 10 11 12 12 12 11 10 10 10 10 10 11 11 11 12 12 11 11 10 10 10 10 9 9 9 9 9 9 9 9 9 9 8 8 7 6 5 4 3 3 3 3 4 4 5 5 6 7 8 8 9 9 9 9 9 10 9 9 9 8
10 7 5 4 4 4 4 6 8 10 11 11 12 13 14 14 14 14 14 14 14 14 14 15 15 13 11 9 8 8 7 7 7 7 7 7 7 7 7 6 6 5 5 4 4 3 3 3 3 3 3 4 4 5 6 7 7 8 8 9 9 9 9 8 8 7 7 6 6
5 1 1 1 1 2 3 4 6 6 6 6 7 8 10 12 13 14 15 16 16 16 15 15 13 11 9 7 6 6 5 5 4 4 4 4 4 4 4 3 3 3 3 3 3 3 3 3 3 3 4 4 5 6 7 7 8 8 8 9 8 8 7 6 5 5 5 5 4
1 2 1 1 2 3 3 3 4 4 5 5 5 5 4 5 7 8 10 10 11 10 9 8 7 5 5 4 4 4 3 3 3 3 3 2 2 2 2 1 1 1 2 2 2 3 3 3 4 4 5 5 6 7 7 7 8 8 8 7 7 6 5 4 4 4 4 4 4
3 3 2 2 3 4 4 4 4 5 6 7 8 8 7 5 3 2 2 3 3 4 4 5 5 4 4 4 3 3 2 2 2 2 1 1 1 1 1 1 1 1 2 2 3 3 3 4 4 5 5 6 7 7 7 8 8 7 7 6 5 4 4 4 4 4 4 4 4
4 3 3 3 3 4 5 5 6 7 8 9 9 9 7 4 2 1 3 4 5 6 6 5 4 4 3 2 2 1 1 1 1 1 1 1 1 1 1 1 1 2 2 2 3 3 3 4 4 5 5 6 6 7 7 7 7 6 5 5 4 4 4 4 4 4 4 4 4
5 4 4 4 4 5 6 7 8 9 9 9 8 6 4 2 1 3 4 4 5 4 4 3 3 2 2 1 2 2 2 2 1 1 1 1 1 1 2 2 2 3 3 3 3 3 4 4 4 5 5 6 6 7 7 6 6 6 5 5 4 4 4 4 4 4 3 3 3
5 4 4 5 5 6 6 7 8 8 7 6 4 2 1 2 3 3 3 3 3 3 3 3 2 2 2 2 2 2 2 2 2 2 2 2 2 2 3 3 4 3 3 4 4 4 4 4 5 5 6 6 6 6 6 6 6 6 5 5 4 4 4 3 3 2 2 2 2
5 5 5 6 6 6 5 5 5 4 4 4 3 3 3 2 2 2 2 2 2 2 2 2 2 2 2 2 2 2 2 2 3 3 3 3 3 4 4 5 5 4 4 4 4 4 5 5 5 6 6 6 6 6 6 6 6 5 5 4 4 3 3 2 2 2 2 2 2
6 6 6 6 6 4 3 2 2 3 3 3 3 3 2 2 2 1 1 1 1 1 1 2 2 2 2 2 2 2 3 3 4 4 4 5 5 5 5 5 5 5 5 4 5 5 5 5 6 6 6 6 6 6 5 5 5 5 4 4 3 3 2 2 2 2 1 1 1
6 6 6 5 3 1 0 1 2 2 3 3 3 2 2 1 1 1 1 1 1 1 1 1 1 2 2 2 3 3 4 4 5 5 5 5 6 6 6 5 5 5 4 4 5 5 5 6 6 6 6 5 5 5 5 5 5 4 4 3 3 2 1 1 1 1 1 2 2
5 5 4 3 2 1 1 1 1 2 3 3 3 3 3 3 3 3 2 2 1 1 1 2 2 3 3 4 4 4 5 5 5 5 6 6 6 6 5 5 5 4 4 5 5 5 5 6 6 6 5 5 5 5 5 5 4 4 3 3 2 1 1 1 1 2 3 3 4
5 4 4 3 2 2 0 1 2 2 3 3 4 5 5 4 4 4 3 3 2 2 3 3 4 4 4 5 5 5 5 5 5 5 5 5 5 5 5 4 4 4 5 5 5 5 6 6 6 6 5 5 5 5 4 4 3 3 2 2 1 1 1 2 3 4 5 6 6
5 4 4 3 2 1 2 2 3 3 3 3 4 5 4 4 4 3 3 3 3 3 4 4 4 5 5 5 5 6 6 5 5 5 5 5 5 5 5 4 4 5 5 5 5 5 6 5 5 5 5 5 4 4 3 3 3 2 1 1 2 2 3 4 5 6 7 7 8
5 4 3 3 3 3 4 4 4 4 4 4 4 4 4 3 3 3 3 4 4 4 4 5 5 5 5 6 6 6 6 5 5 5 6 6 6 6 5 5 5 5 5 5 6 6 5 5 5 4 4 4 4 3 2 2 1 0 1 2 3 4 5 6 6 7 8 8 9
7 6 6 5 5 5 5 5 5 4 4 4 4 4 3 3 2 2 3 4 4 4 4 5 5 6 6 6 6 6 6 6 6 7 7 7 7 6 6 5 5 5 5 6 6 6 5 5 4 4 3 3 2 2 1 0 1 2 3 4 5 6 6 7 7 8 8 8 9
9 9 8 7 7 7 7 6 5 5 4 4 4 3 3 2 2 3 3 4 4 4 5 6 6 7 7 6 6 6 6 7 7 8 8 8 7 7 6 6 6 5 5 6 6 5 5 4 4 3 2 1 1 0 1 2 3 3 4 5 6 6 7 7 7 8 8 9 9
11 10 9 8 8 7 7 6 6 5 5 4 4 3 3 2 3 3 4 4 5 5 6 6 7 7 6 6 6 6 6 7 8 8 8 8 7 7 7 6 6 6 5 5 5 4 4 3 2 1 0 0 1 2 2 3 4 4 5 5 6 7 7 8 8 8 9 9 9
11 11 10 9 8 7 7 7 7 6 6 5 4 4 3 4 4 5 5 5 6 7 7 7 7 7 6 6 6 6 7 7 8 8 8 8 7 7 7 7 6 5 5 4 3 3 2 1 1 1 1 2 2 3 3 4 4 5 5 6 6 7 8 8 9 9 9 10 10
Wind_Direction
259 259 260 260 261 262 263 264 265 266 266 266 266 266 266 266 266 266 266 266 265 265 265 265 265 265 265 265 265 264 264 263 262 260 259 258 258 258 259 261 261 262 262 262 262 263 264 265 266 267 268 269 268 265 263 265 267 266 257 242 235 236 242 250 258 264 269 271 270
261 261 261 262 263 263 264 265 266 267 267 268 268 268 268 269 268 268 268 268 267 267 266 266 266 265 265 265 265 265 264 263 262 260 259 257 257 257 258 259 259 260 260 260 261 261 263 264 266 267 268 268 266 263 261 261 261 257 248 237 236 239 244 249 257 266 272 273 270
264 264 264 264 265 265 265 266 266 267 267 268 268 269 269 270 270 270 270 269 269 268 268 268 267 266 266 265 265 265 264 263 261 259 257 256 255 255 255 256 257 258 258 259 260 261 262 264 265 266 267 267 265 259 253 251 250 248 243 240 240 241 242 244 249 257 264 266 264
266 266 266 266 266 266 266 266 266 266 266 267 267 268 269 269 270 270 270 270 269 269 269 268 267 267 266 265 264 263 262 261 259 257 255 254 253 253 253 254 255 256 257 258 259 260 262 263 265 267 269 268 262 257 253 250 247 245 246 246 245 245 243 241 243 251 259 261 261
266 267 268 268 268 268 267 266 266 265 265 265 266 266 267 268 268 269 269 269 269 268 268 267 267 266 265 264 263 261 260 259 257 255 254 253 253 252 253 253 253 254 255 256 258 259 261 263 267 270 271 268 262 259 257 252 246 244 246 247 248 246 243 242 249 260 267 267 267
266 267 268 268 268 268 267 267 266 266 265 265 265 265 265 266 266 266 267 267 267 266 266 266 266 266 265 263 261 259 257 256 255 254 253 253 253 252 253 253 253 253 254 255 257 259 261 264 268 270 270 268 267 265 261 255 249 244 243 245 246 244 244 249 263 274 279 280 277
265 265 266 266 267 267 267 266 266 266 265 265 264 263 263 262 263 263 264 264 264 265 265 265 265 264 263 261 258 256 254 253 252 252 252 252 252 252 253 253 253 253 254 255 257 259 261 262 264 265 266 267 267 264 258 253 250 246 244 244 244 242 244 254 268 279 285 284 277
265 264 265 265 265 265 265 265 265 266 265 265 263 262 260 260 259 260 260 261 262 263 263 263 263 262 261 259 257 254 252 250 249 250 251 251 252 253 253 253 253 254 254 255 256 257 258 259 259 259 260 261 262 261 259 256 253 248 245 244 243 243 247 256 267 276 281 279 273
266 265 265 265 264 264 264 265 265 265 265 264 263 261 260 259 258 258 259 259 260 261 262 262 262 262 261 259 257 254 251 249 248 248 249 251 252 253 254 254 254 254 254 254 255 255 256 256 255 254 254 255 258 260 262 262 260 255 249 245 245 247 251 257 264 272 275 274 274
266 266 265 264 264 264 264 264 265 265 265 264 263 263 262 261 261 261 261 262 262 263 263 263 264 264 263 262 259 256 253 250 248 248 249 251 253 254 255 254 254 253 253 253 253 253 253 253 252 252 254 257 260 262 264 266 267 260 251 247 247 250 255 259 265 270 272 275 279
266 265 265 264 264 264 265 264 265 265 265 264 264 264 265 265 266 266 267 267 267 266 266 266 266 267 267 266 264 260 256 253 251 250 250 252 253 254 254 253 252 251 251 251 251 251 251 251 252 255 259 260 259 258 259 264 265 259 251 249 252 257 262 265 268 272 276 280 284
265 265 265 265 265 265 264 264 265 265 265 265 266 267 268 270 271 272 272 272 271 270 269 269 269 269 270 269 267 263 259 256 253 252 251 251 252 252 252 251 250 250 250 250 251 252 252 252 254 257 258 254 247 246 253 263 263 257 253 255 259 264 268 271 274 278 281 284 284
264 264 265 265 265 265 264 264 264 265 266 267 268 270 272 273 274 274 275 275 274 274 272 271 271 270 270 269 267 264 260 256 253 250 249 248 248 249 249 249 248 249 250 251 252 253 254 255 255 253 249 243 238 242 254 264 263 260 258 262 266 272 277 280 282 283 283 282 281
263 264 264 264 264 264 263 263 264 265 266 268 270 272 273 274 275 275 276 275 274 274 272 271 270 268 267 265 264 261 257 253 249 246 245 244 244 245 245 245 246 247 249 250 252 253 254 255 256 254 249 243 240 244 252 260 262 262 263 267 274 280 284 284 284 282 280 279 280
262 263 263 263 263 262 262 263 264 265 267 269 270 271 272 273 274 274 273 272 270 269 268 266 264 262 260 258 256 254 252 249 246 244 242 241 241 241 242 242 243 244 247 248 248 248 249 251 254 254 251 245 243 245 251 256 259 262 266 272 278 281 281 278 276 275 275 277 278
260 260 260 261 261 261 262 263 264 266 266 267 268 269 270 270 271 271 271 270 268 266 265 261 257 255 253 252 250 250 250 249 247 245 243 243 243 243 243 242 243 243 243 243 243 244 248 251 252 251 248 245 246 249 254 258 263 268 273 276 276 273 271 271 272 274 275 277 278
256 256 257 258 260 262 264 265 264 263 262 262 263 266 269 269 269 269 271 274 274 273 270 267 264 261 260 258 255 253 252 250 246 241 240 242 245 246 246 247 246 244 242 241 243 248 252 254 253 252 251 252 254 257 261 266 271 275 275 271 267 266 268 272 275 276 277 278 278
253 253 255 257 259 262 264 265 264 264 264 265 266 269 274 277 278 278 281 285 290 291 290 292 293 290 281 274 265 255 244 238 234 232 232 235 239 240 242 244 245 245 245 246 251 255 256 255 255 258 262 266 267 268 269 272 272 270 265 264 265 268 271 273 275 276 277 277 277
252 252 254 257 259 259 261 264 267 272 277 281 283 284 287 294 295 296 296 297 298 296 295 298 299 292 278 265 257 249 241 235 232 232 233 235 237 238 238 238 239 240 242 246 250 254 256 258 261 266 272 276 276 274 271 267 263 260 262 265 268 269 271 272 273 273 274 274 275
255 254 255 257 259 259 260 263 272 285 294 292 289 284 282 287 285 282 275 261 243 232 230 233 238 244 243 239 237 237 236 235 233 234 236 237 237 237 236 234 234 234 236 241 248 254 261 266 270 273 274 275 273 268 262 257 258 261 264 265 267 268 270 270 270 271 271 273 275
259 254 251 253 255 255 253 250 252 257 253 243 235 230 229 231 230 229 226 222 217 213 210 210 213 220 225 228 231 233 234 235 236 238 239 240 239 238 237 237 241 246 253 257 261 265 269 272 273 271 266 260 257 257 258 260 262 264 266 267 268 269 269 269 270 271 273 276 279
263 255 249 248 251 252 249 242 238 238 235 228 224 224 225 225 226 226 225 224 225 227 231 233 233 233 236 241 245 249 252 253 253 253 252 252 253 255 258 263 270 276 278 278 277 275 271 263 256 250 249 253 257 260 263 264 267 269 270 271 272 271 271 271 272 273 276 278 281
270 264 257 254 256 255 250 241 239 241 240 234 229 230 234 236 237 238 238 238 237 240 245 250 254 256 255 254 255 258 260 261 260 259 258 259 262 267 272 277 280 280 279 277 272 264 251 242 240 244 252 261 265 267 269 271 273 275 276 276 276 275 274 274 275 276 277 278 279
275 271 266 268 272 263 245 237 242 249 251 246 238 236 237 240 241 243 245 246 246 246 248 253 258 259 256 251 250 249 248 247 247 249 252 256 260 264 267 268 267 266 263 259 251 242 239 244 253 260 264 268 271 273 275 277 278 279 280 279 278 277 277 275 274 273 273 273 274
270 252 104 11 316 287 254 244 251 262 271 272 257 246 241 242 243 244 246 248 249 249 250 251 252 249 242 234 231 228 225 220 221 228 237 243 246 246 245 242 243 244 247 246 244 245 249 258 266 272 273 273 273 274 275 277 279 280 280 279 278 276 274 270 266 263 263 265 264
202 155 172 230 266 269 266 264 272 287 305 318 321 313 293 269 254 248 245 245 245 244 239 232 224 213 203 192 188 186 189 192 196 201 204 207 210 213 214 220 238 256 261 263 264 265 267 269 271 272 273 272 272 273 275 276 276 277 277 276 273 268 261 254 251 251 253 253 251
177 184 204 226 251 261 269 278 286 295 303 309 312 314 314 308 290 255 221 204 191 176 159 147 139 134 132 133 137 145 154 163 164 161 149 118 82 60 43 8 315 287 274 269 267 267 268 269 270 271 271 271 270 271 271 272 272 272 270 267 260 252 245 240 240 241 242 241 238
196 208 216 225 240 252 263 276 280 283 288 292 294 298 300 295 273 192 151 137 125 117 112 109 110 112 113 116 118 121 115 111 96 73 54 38 26 15 2 320 281 262 253 249 248 251 255 260 263 267 267 267 265 264 265 265 264 261 256 250 244 238 233 231 232 234 235 233 231
207 214 222 230 241 251 264 277 283 287 290 292 295 297 293 267 165 138 129 122 115 109 105 105 110 109 99 84 68 60 50 38 25 8 352 332 315 298 282 269 262 252 242 235 235 238 243 249 255 259 259 258 257 256 255 254 251 245 240 236 233 229 227 226 228 230 232 232 231
213 221 228 238 249 262 274 286 294 299 305 314 326 348 58 104 106 104 104 107 110 112 113 108 97 79 61 48 36 22 5 350 331 308 294 284 274 269 264 260 256 249 241 234 231 233 237 242 247 249 250 249 247 245 244 241 236 231 226 224 222 221 221 224 227 229 228 229 229
218 224 233 245 258 271 284 297 308 322 342 9 29 49 67 75 74 74 80 87 93 96 91 74 53 40 29 16 2 342 321 304 290 278 271 265 259 255 253 252 251 247 241 234 232 231 234 237 240 242 242 241 239 237 233 227 222 217 213 211 209 210 212 215 219 222 227 231 235
222 231 240 251 262 277 300 336 2 17 27 34 35 36 38 43 49 56 62 63 61 50 33 20 10 1 343 321 298 281 274 269 265 260 255 250 247 245 245 246 246 244 239 233 229 228 230 233 235 235 235 233 231 226 220 213 207 201 196 194 194 197 201 211 223 233 247 264 283
234 242 247 250 252 256 40 53 40 31 26 21 10 353 334 323 315 305 307 323 350 353 343 331 312 292 280 268 260 257 254 253 252 250 247 244 241 239 239 240 240 237 233 228 225 224 225 226 226 225 223 220 217 211 204 196 189 184 181 179 179 183 194 218 241 266 288 305 315
240 243 241 225 200 165 129 75 23 5 359 352 332 311 296 280 268 258 252 248 250 254 256 258 256 254 250 248 247 248 249 248 246 245 243 240 237 234 232 232 230 228 224 222 220 218 217 215 213 210 206 202 197 192 187 181 176 171 167 167 168 176 207 252 275 291 304 311 315
232 227 210 187 171 161 164 331 332 334 333 326 314 303 292 277 261 248 235 222 215 216 223 230 234 238 240 242 244 246 247 247 246 242 239 233 227 222 218 217 219 220 220 216 212 208 204 201 197 193 189 184 181 176 172 166 160 156 154 160 183 224 260 282 294 302 307 310 312
221 207 187 175 182 224 278 295 301 305 309 307 305 302 294 279 258 237 219 204 202 207 216 222 228 233 237 241 245 248 249 246 242 237 228 220 212 206 203 206 211 214 211 205 198 193 188 184 180 176 173 169 165 162 157 151 146 147 161 213 256 274 290 300 306 308 309 310 311
218 212 204 211 235 257 269 275 278 284 290 294 295 293 286 272 249 218 199 198 200 209 218 224 230 236 239 242 244 246 243 235 228 221 215 207 200 193 191 195 201 202 196 188 180 173 167 163 160 158 158 157 155 152 149 145 145 211 281 291 297 304 308 311 312 313 313 313 313
218 222 227 235 244 252 257 260 265 275 284 289 287 281 271 255 235 206 195 202 210 217 223 228 233 237 241 243 245 241 232 219 212 207 203 198 190 183 180 182 185 183 176 169 162 155 150 147 147 148 152 154 155 156 154 172 310 313 316 317 321 321 320 318 317 317 317 317 316
217 220 227 233 239 245 250 254 261 271 280 282 275 268 258 249 232 214 210 216 224 229 231 233 236 239 242 243 242 236 226 214 203 197 192 185 179 173 170 168 167 164 159 153 149 144 142 142 143 148 152 155 154 136 331 330 329 329 330 330 332 331 328 324 322 321 320 318 317
219 220 225 232 238 244 251 257 267 274 277 272 264 255 248 240 226 221 221 228 235 238 239 238 239 239 238 234 227 222 214 206 196 188 180 173 167 163 160 156 153 149 146 143 141 139 139 141 142 141 127 20 353 345 340 339 337 336 336 336 335 334 331 328 325 323 320 318 315
221 222 226 234 242 250 258 267 275 279 276 267 257 244 231 222 218 220 226 232 239 242 241 237 235 231 225 218 210 202 195 189 183 176 168 161 157 154 151 146 144 141 140 138 138 138 137 134 112 34 2 350 346 343 342 344 344 343 341 338 336 334 332 328 325 322 319 316 314